Location: Lake Crest
(37.6062°N, 88.9176°W)
Time: 17:18:41
(UTC+00:00)

CZ-4B R/B - Pass Details

Date: 15 December 2019
Orbit: 809 x 881 km, 99.1° (Epoch: 18 January)

Event Time Altitude Azimuth Distance (km) Brightness Sun altitude
Rises 11:07:11 0° 19° (NNE) 3,468 6.5 -22.2°
Reaches altitude 10° 11:09:39 10° 25° (NNE) 2,533 5.8 -21.8°
Maximum altitude 11:15:08 51° 101° (E) 1,095 4.1 -20.7°
Drops below altitude 10° 11:20:36 10° 176° (S) 2,529 5.9 -19.6°
Sets 11:23:03 0° 181° (S) 3,462 6.6 -19.2°
